Location: Il Ritiro
(43.4167°N, 13.1333°E)
Time: 01:02:00
(UTC+00:00)

BREEZE-M (TANK) - Pass Details

Date: 05 July 2020
Orbit: 314 x 17584 km, 49.5° (Epoch: 11 August)

Event Time Altitude Azimuth Distance (km) Brightness Sun altitude
Exits shadow 20:40:00 15° 188° (S) 1,827 4.8 -15.2°
Maximum altitude 20:43:24 40° 122° (ESE) 1,608 4.4 -15.6°
Drops below altitude 10° 20:56:37 10° 60° (ENE) 6,683 8.0 -16.9°
Sets 21:07:14 0° 56° (ENE) 10,410 9.0 -17.9°
